Regional Weather Roundup
Issued by NWS

Home | Current Version | Previous Version | Text Only | Print | Product List | Glossary Off
Versions: 1 2 3 4 5 6 7 8 9 10 11 12 13 14 15 16 17 18 19 20 21 22 23 24 25 26 27 28 29 30 31 32 33 34 35 36 37 38 39 40 41 42 43 44 45 46 47 48 49 50

000
ASUS43 KFSD 221510
RWRSD

WEATHER ROUNDUP FOR SOUTH DAKOTA
NATIONAL WEATHER SERVICE SIOUX FALLS SD
1000 AM CDT MON MAY 22 2017

NOTE: "FAIR" INDICATES FEW OR NO CLOUDS BELOW 12,000 FEET WITH NO
SIGNIFICANT WEATHER AND/OR OBSTRUCTIONS TO VISIBILITY.


SDZ001>005-009-010-012>017-221600-
NORTHWEST AND NORTH CENTRAL SOUTH DAKOTA

CITY           SKY/WX    TMP DP  RH WIND       PRES   REMARKS
BUFFALO          N/A     54  43  66 NW17      29.95S
FAITH            N/A     55  45  68 N23       29.97S
MOBRIDGE       LGT RAIN  52  46  80 N9        29.90R
$$

SDZ012>016-024>037-041>051-057-063-072>074-221600-
SOUTHWEST AND SOUTH CENTRAL SOUTH DAKOTA

CITY           SKY/WX    TMP DP  RH WIND       PRES   REMARKS
RAPID CTY ARPT SUNNY     58  41  53 N24G33    30.01F
PIERRE         LGT RAIN  51  47  86 NW9       29.94R
CUSTER         PTSUNNY   50  33  52 NW12G20   30.06S
ELLSWORTH AFB  SUNNY     58  41  52 NW26G32   30.01S
PHILIP         SUNNY     59  47  64 NW15      29.97F
PINE RIDGE     CLOUDY    51  46  83 SW5       30.04F
SPEARFISH      FAIR      55  41  58 NW14      30.06S
WINNER         CLOUDY    55  46  71 NW9       29.96F
$$

SDZ004>011-016>023-039-040-221600-
NORTHEAST SOUTH DAKOTA

CITY           SKY/WX    TMP DP  RH WIND       PRES   REMARKS
ABERDEEN       PTSUNNY   54  42  64 NE12      29.91R
WATERTOWN      MOSUNNY   56  46  69 NE6       29.87S
BROOKINGS      SUNNY     57  47  69 CALM      29.87F
SISSETON         N/A     53  44  71 N12       29.88F
$$

SDZ017-020-022-023-036>040-048>070-221600-
SOUTHEAST SOUTH DAKOTA

CITY           SKY/WX    TMP DP  RH WIND       PRES   REMARKS
SIOUX FALLS    PTSUNNY   62  49  62 VRB3      29.88F
HURON          PTSUNNY   56  46  69 W14       29.89R
CHAMBERLAIN    CLOUDY    54  49  85 NW16      29.94F
MITCHELL       MOSUNNY   59  46  62 W14       29.91R
YANKTON        SUNNY     60  49  66 S12       29.92S
$$

ABBREVIATIONS USED IN REMARKS
   TC - TEMPERATURE IN CELSIUS
  WCI - WIND CHILL INDEX
   HX - HEAT INDEX
  VSB - VISIBILITY





USA.gov is the U.S. government's official web portal to all federal, state and local government web resources and services.